User: anonymous   Login
Location: Unspecified
(44.0704°N, 88.6889°W)
Time: 14:34:53
(UTC+02:00)
Language:

Vanguard 3 - Orbit

View from above orbital plane
View from above orbital plane
View from above satellite
View from above satellite

Ground track
Ground track

The orbit data is extracted from the following two-line orbital elements,

1    20U 59007A   19175.65180042 +.00000235 +00000-0 +90741-4 0  9997
2    20 033.3461 020.2641 1667110 163.4714 202.7688 11.55653568189081
Epoch (UTC): 24 June 2019 15:38:35
Eccentricity: 0.1667110
inclination: 33.3461°
perigee height: 508 km
apogee height: 3263 km
right ascension of ascending node: 20.2641°
argument of perigee: 163.4714°
revolutions per day: 11.55653568
mean anomaly at epoch: 202.7688°
orbit number at epoch: 18908

The dashed part of the orbit path shows where the satellite is in the earth's shadow,  

DLR